Location: Kermapucano
(48.0667°N, 3.3000°W)
Time: 20:11:43
(UTC+00:00)

Cosmos 1812 - Pass Details

Date: 29 November 2020
Orbit: 517 x 520 km, 82.5° (Epoch: 27 January)

Event Time Altitude Azimuth Distance (km) Brightness Sun altitude
Exits shadow 05:43:08 10° 355° (N) 1,747 5.2 -18.9°
Maximum altitude 05:46:57 67° 79° (ENE) 565 3.0 -18.2°
Drops below altitude 10° 05:50:46 10° 163° (SSE) 1,747 5.8 -17.6°
Sets 05:52:54 0° 166° (SSE) 2,630 6.7 -17.3°
